Weather History for KCDD - February, 2012

Change the Weather History Date:

Monday, February 6, 2012

  Actual Average Record
Temperature  
Mean Temperature 19 °F -  
Max Temperature 28 °F 22 °F 44 °F (2002)
Min Temperature 10 °F 1 °F -29 °F (2007)
Degree Days  
Heating Degree Days 46    
Moisture  
Dew Point 17 °F    
Average Humidity 82    
Maximum Humidity 100    
Minimum Humidity 68    
Precipitation  
Precipitation 0.00 in - - ()
Sea Level Pressure  
Sea Level Pressure 30.12 in    
Wind  
Wind Speed 2 mph (North)    
Max Wind Speed 9 mph    
Max Gust Speed -    
Visibility 10 miles    
Events      
Averages and records for this station are not official NWS values.
T = Trace of Precipitation, MM = Missing Value Source: NWS Daily Summary

Daily Weather History Graph

Daily Weather History Graph

Search for Another Location

Airport or City:

Trip Planner

Search our weather history database for the weather conditions in past years. The results will help you decide how hot, cold, wet, or windy it might be!

Date:

Astronomy

Feb. 06, 2012 Rise Set
Actual Time 7:31 AM CST 5:16 PM CST
Civil Twilight 6:58 AM CST 5:49 PM CST
Nautical Twilight 6:21 AM CST 6:26 PM CST
Astronomical Twilight 5:45 AM CST 7:03 PM CST
Moon 4:20 PM CST (2/6) 6:26 AM CST (2/6)
Length of Visible Light 10h 50m
Length of Day
9h 44m
Waxing Gibbous, 98% of the Moon is Illuminated
Feb 6
Waxing Gibbous
Feb 7
Full
Feb 14
Last Quarter
Feb 21
New
Feb 29
First Quarter

Hourly Weather History & Observations

Time (CST) Temp. Windchill Dew Point Humidity Pressure Visibility Wind Dir Wind Speed Gust Speed Precip Events Conditions
12:05 AM 28.4 °F - 21.2 °F 74% 29.98 in 10.0 mi Calm Calm - N/A   Clear
12:25 AM 28.4 °F - 21.2 °F 74% 29.98 in 10.0 mi Calm Calm - N/A   Clear
12:45 AM 26.6 °F 22.6 °F 21.2 °F 80% 29.97 in 10.0 mi South 3.5 mph - N/A   Clear
1:05 AM 23.0 °F - 19.4 °F 86% 29.97 in 10.0 mi Calm Calm - N/A   Clear
1:25 AM 21.2 °F - 17.6 °F 86% 29.97 in 10.0 mi Calm Calm - N/A   Clear
1:45 AM 19.4 °F - 17.6 °F 93% 29.97 in 10.0 mi Calm Calm - N/A   Clear
2:04 AM 19.4 °F - 17.6 °F 93% 29.97 in 10.0 mi North - - N/A   Clear
2:25 AM 24.8 °F - 21.2 °F 86% 29.97 in 10.0 mi Calm Calm - N/A   Clear
2:45 AM 26.6 °F - 23.0 °F 86% 29.96 in 10.0 mi Calm Calm - N/A   Clear
3:05 AM 26.6 °F - 24.8 °F 93% 29.96 in 10.0 mi Calm Calm - N/A   Clear
3:25 AM 26.6 °F - 24.8 °F 93% 29.95 in 10.0 mi Calm Calm - N/A   Clear
3:45 AM 24.8 °F - 21.2 °F 86% 29.95 in 10.0 mi Calm Calm - N/A   Scattered Clouds
4:05 AM 24.8 °F - 21.2 °F 86% 29.95 in 10.0 mi Calm Calm - N/A   Clear
4:25 AM 21.2 °F - 19.4 °F 93% 29.95 in 10.0 mi Calm Calm - N/A   Clear
4:45 AM 17.6 °F - 15.8 °F 93% 29.96 in 10.0 mi Calm Calm - N/A   Clear
5:05 AM 15.8 °F - 14.0 °F 93% 29.96 in 7.0 mi Calm Calm - N/A   Clear
5:25 AM 15.8 °F - 12.2 °F 86% 29.96 in 10.0 mi Calm Calm - N/A   Clear
5:45 AM 14.0 °F - 12.2 °F 93% 29.96 in 10.0 mi Calm Calm - N/A   Clear
6:05 AM 12.2 °F - 12.2 °F 100% 29.97 in 10.0 mi Calm Calm - N/A   Clear
6:25 AM 12.2 °F - 10.4 °F 92% 29.97 in 10.0 mi Calm Calm - N/A   Clear
6:45 AM 12.2 °F - 10.4 °F 92% 29.98 in 10.0 mi Calm Calm - N/A   Clear
7:05 AM 12.2 °F - 10.4 °F 92% 29.98 in 10.0 mi Calm Calm - N/A   Clear
7:25 AM 10.4 °F - 8.6 °F 92% 30.00 in 10.0 mi Calm Calm - N/A   Clear
7:45 AM 10.4 °F - 8.6 °F 92% 30.00 in 10.0 mi Calm Calm - N/A   Mostly Cloudy
8:05 AM 12.2 °F - 10.4 °F 92% 30.02 in 10.0 mi Calm Calm - N/A   Mostly Cloudy
8:25 AM 15.8 °F - 12.2 °F 86% 30.02 in 7.0 mi Calm Calm - N/A   Overcast
8:45 AM 19.4 °F 14.3 °F 17.6 °F 93% 30.04 in 5.0 mi NNW 3.5 mph - N/A   Overcast
9:05 AM 21.2 °F 14.9 °F 21.2 °F 100% 30.05 in 7.0 mi NNW 4.6 mph - N/A   Overcast
9:25 AM 23.0 °F 17.0 °F 21.2 °F 93% 30.05 in 10.0 mi NNW 4.6 mph - N/A   Mostly Cloudy
9:45 AM 24.8 °F - 21.2 °F 86% 30.07 in 10.0 mi Calm Calm - N/A   Scattered Clouds
10:05 AM 24.8 °F 19.1 °F 21.2 °F 86% 30.08 in 10.0 mi North 4.6 mph - N/A   Overcast
10:25 AM 24.8 °F 16.9 °F 21.2 °F 86% 30.08 in 10.0 mi NNW 6.9 mph - N/A   Overcast
10:45 AM 26.6 °F 20.0 °F 21.2 °F 80% 30.09 in 10.0 mi North 5.8 mph - N/A   Overcast
11:05 AM 26.6 °F 18.2 °F 21.2 °F 80% 30.10 in 10.0 mi North 8.1 mph - N/A   Overcast
11:25 AM 26.6 °F 19.1 °F 21.2 °F 80% 30.10 in 10.0 mi North 6.9 mph - N/A   Overcast
11:45 AM 26.6 °F 19.1 °F 21.2 °F 80% 30.11 in 10.0 mi North 6.9 mph - N/A   Overcast
12:05 PM 26.6 °F 18.2 °F 21.2 °F 80% 30.12 in 10.0 mi North 8.1 mph - N/A   Overcast
12:25 PM 26.6 °F 18.2 °F 21.2 °F 80% 30.13 in 10.0 mi North 8.1 mph - N/A   Overcast
12:45 PM 26.6 °F 18.2 °F 21.2 °F 80% 30.13 in 10.0 mi North 8.1 mph - N/A   Overcast
1:05 PM 26.6 °F 19.1 °F 21.2 °F 80% 30.14 in 10.0 mi North 6.9 mph - N/A   Overcast
1:25 PM 26.6 °F 19.1 °F 21.2 °F 80% 30.15 in 10.0 mi North 6.9 mph - N/A   Overcast
1:45 PM 26.6 °F 19.1 °F 21.2 °F 80% 30.16 in 10.0 mi North 6.9 mph - N/A   Overcast
2:05 PM 26.6 °F 21.2 °F 21.2 °F 80% 30.17 in 10.0 mi North 4.6 mph - N/A   Overcast
2:25 PM 26.6 °F 21.2 °F 21.2 °F 80% 30.18 in 10.0 mi North 4.6 mph - N/A   Overcast
2:45 PM 28.4 °F 24.6 °F 21.2 °F 74% 30.19 in 10.0 mi North 3.5 mph - N/A   Overcast
3:05 PM 26.6 °F 19.1 °F 21.2 °F 80% 30.20 in 10.0 mi North 6.9 mph - N/A   Overcast
3:25 PM 26.6 °F 19.1 °F 21.2 °F 80% 30.21 in 10.0 mi North 6.9 mph - N/A   Overcast
3:45 PM 26.6 °F 18.2 °F 19.4 °F 74% 30.22 in 10.0 mi North 8.1 mph - N/A   Overcast
4:05 PM 26.6 °F 18.2 °F 17.6 °F 69% 30.23 in 10.0 mi North 8.1 mph - N/A   Overcast
4:25 PM 24.8 °F 16.9 °F 15.8 °F 69% 30.25 in 10.0 mi North 6.9 mph - N/A   Overcast
4:45 PM 24.8 °F 15.3 °F 15.8 °F 69% 30.26 in 10.0 mi North 9.2 mph - N/A   Mostly Cloudy
5:05 PM 23.0 °F 15.8 °F 14.0 °F 68% 30.27 in 10.0 mi North 5.8 mph - N/A   Scattered Clouds
5:25 PM 21.2 °F 12.6 °F 12.2 °F 68% 30.28 in 10.0 mi NNW 6.9 mph - N/A   Scattered Clouds
5:45 PM 21.2 °F 16.4 °F 12.2 °F 68% 30.29 in 10.0 mi North 3.5 mph - N/A   Clear
6:05 PM 19.4 °F 11.5 °F 10.4 °F 68% 30.31 in 10.0 mi North 5.8 mph - N/A   Clear
6:25 PM 19.4 °F 11.5 °F 10.4 °F 68% 30.32 in 10.0 mi NNW 5.8 mph - N/A   Clear
6:45 PM 17.6 °F 8.2 °F 10.4 °F 73% 30.33 in 10.0 mi NNW 6.9 mph - N/A   Clear
7:05 PM 17.6 °F 9.3 °F 8.6 °F 68% 30.34 in 10.0 mi North 5.8 mph - N/A   Scattered Clouds
7:25 PM 17.6 °F 12.3 °F 8.6 °F 68% 30.36 in 10.0 mi North 3.5 mph - N/A   Clear
7:45 PM 15.8 °F 8.6 °F 8.6 °F 73% 30.37 in 10.0 mi North 4.6 mph - N/A   Clear
8:05 PM 15.8 °F 10.2 °F 6.8 °F 68% 30.38 in 10.0 mi North 3.5 mph - N/A   Clear
8:25 PM 14.0 °F 6.5 °F 6.8 °F 73% 30.39 in 10.0 mi North 4.6 mph - N/A   Clear
8:45 PM 14.0 °F 8.2 °F 6.8 °F 73% 30.40 in 10.0 mi North 3.5 mph - N/A   Clear
9:05 PM 12.2 °F 6.1 °F 6.8 °F 79% 30.41 in 10.0 mi North 3.5 mph - N/A   Clear
9:25 PM 12.2 °F 6.1 °F 6.8 °F 79% 30.42 in 10.0 mi NNW 3.5 mph - N/A   Clear
9:45 PM 10.4 °F 4.0 °F 5.0 °F 79% 30.42 in 10.0 mi NNW 3.5 mph - N/A   Clear
10:05 PM 10.4 °F 2.2 °F 5.0 °F 79% 30.43 in 10.0 mi NNW 4.6 mph - N/A   Clear
10:25 PM 10.4 °F 2.2 °F 5.0 °F 79% 30.44 in 10.0 mi NNW 4.6 mph - N/A   Clear
10:45 PM 8.6 °F - 3.2 °F 79% 30.46 in 10.0 mi Calm Calm - N/A   Clear
11:06 PM 5.0 °F - 1.4 °F 85% 30.47 in 10.0 mi Calm Calm - N/A   Clear
11:25 PM 3.2 °F -4.2 °F 1.4 °F 92% 30.49 in 10.0 mi North 3.5 mph - N/A   Clear
11:45 PM 6.8 °F -0.1 °F 1.4 °F 79% 30.50 in 10.0 mi North 3.5 mph - N/A   Clear